[Iaude] MPEC S130: 2023 SE3 [a=1.73,e=0.38,i=4.8,H=25.6]

mpec at marsden.cfa.harvard.edu mpec at marsden.cfa.harvard.edu
Wed Sep 20 21:43:23 EDT 2023


M.P.E.C. 2023-S130                           Issued 2023 September 21, 01:41 UT

     The Minor Planet Electronic Circulars contain information on unusual
         minor planets, routine data on comets and natural satellites,
         and occasional editorial announcements.  They are published
    on behalf of Division F of the International Astronomical Union by the
          Minor Planet Center, Smithsonian Astrophysical Observatory,
                          Cambridge, MA 02138, U.S.A.
			  
             Prepared using the Tamkin Foundation Computer Network

                              MPC at CFA.HARVARD.EDU
            URL https://www.minorplanetcenter.net/    ISSN 1523-6714

                                    2023 SE3                                    


Observations:
     K23S03E*1C2023 09 19.30106501 14 29.670+02 56 25.98         20.30GVES130G96
     K23S03E 1C2023 09 19.30625701 14 31.988+02 56 17.02         20.70GVES130G96
     K23S03E 1C2023 09 19.31143101 14 34.343+02 56 07.98         21.17GVES130G96
     K23S03E 1C2023 09 19.31659601 14 36.708+02 55 58.91         21.06GVES130G96
     K23S03E KC2023 09 19.41255101 15 19.922+02 53 09.60         21.31GVES130I52
     K23S03E KC2023 09 19.41359601 15 20.437+02 53 07.87         20.83GVES130I52
     K23S03E 1C2023 09 20.12580 01 21 05.55 +02 31 48.7          20.8 VXES130033
     K23S03E 1C2023 09 20.12743 01 21 06.32 +02 31 45.8          20.8 VXES130033
     K23S03E 1C2023 09 20.12905 01 21 07.05 +02 31 43.1          21.4 VXES130033
     K23S03E KC2023 09 20.25281201 22 11.25 +02 28 25.1          21.7 VuES130H21
     K23S03E KC2023 09 20.25840201 22 13.73 +02 28 15.9          21.9 VuES130H21
     K23S03E KC2023 09 20.27176401 22 22.184+02 28 04.58         21.53GVES130I52
     K23S03E KC2023 09 20.27280501 22 22.634+02 28 02.46         21.18GVES130I52
     K23S03E KC2023 09 20.27386501 22 23.110+02 28 00.88         20.98GVES130I52
     K23S03E KC2023 09 20.28220601 22 26.21 +02 27 41.8          21.2 GXES130858
     K23S03E KC2023 09 20.29253201 22 30.78 +02 27 24.3          21.2 GXES130858
     K23S03E 1C2023 09 21.04156 01 28 19.78 +02 05 27.6          20.6 VXES130033
     K23S03E 1C2023 09 21.04393 01 28 20.84 +02 05 23.2          20.4 VXES130033
     K23S03E 1C2023 09 21.04630 01 28 21.87 +02 05 19.3          20.3 VXES130033

Observer details:
033 Karl Schwarzschild Observatory, Tautenburg.  Observers S. Melnikov, C.
    Hogner, F. Ludwig, M. Hartmann, B. Stecklum.  Measurer B. Stecklum.
    1.34-m f/3 Schmidt + CCD.
858 Tebbutt Observatory, Edgewood.  Observer F. B. Zoltowski.  0.51-m f/8.1
    Schmidt-Cassegrain + CCD.
G96 Mt. Lemmon Survey.  Observer J. K. Hogan.  Measurers E. J. Christensen, D.
    Fay, J. B. Fazekas, D. C. Fuls, A. R. Gibbs, A. D. Grauer, H. Groeller, J.
    K. Hogan, R. A. Kowalski, S. M. Larson, G. J. Leonard, D. Rankin, R. L.
    Seaman, A. Serrano, F. C. Shelly, K. W. Wierzchos.  1.5-m reflector + 10K
    CCD.
H21 Astronomical Research Observatory, Westfield.  Observer R. Holmes.
    Measurers T. Linder, R. Holmes, L. Horn.  0.76-m f/3.0 astrograph + CCD.
I52 Steward Observatory, Mt. Lemmon Station.  Observer K. W. Wierzchos.
    Measurers E. J. Christensen, D. Fay, J. B. Fazekas, D. C. Fuls, A. R.
    Gibbs, A. D. Grauer, H. Groeller, J. K. Hogan, R. A. Kowalski, S. M.
    Larson, G. J. Leonard, D. Rankin, R. L. Seaman, A. Serrano, F. C. Shelly,
    K. W. Wierzchos.  1.0-m prime focus + CCD.

Orbital elements:
2023 SE3                                                 Earth MOID = 0.0665 AU
Epoch 2023 Sept. 13.0 TT = JDT 2460200.5                Veres                   
M 357.94467              (2000.0)            P               Q                  
n   0.43449714     Peri.  182.04892     +0.99708515     +0.07572428             
a   1.7264133      Node   173.58584     -0.06875969     +0.94483373             
e   0.3792367      Incl.    4.79013     -0.03306507     +0.31867704             
P   2.27           H   25.66          G   0.15           U   8                  
Residuals in seconds of arc
230919 G96  0.3+  0.2-    230920 033  0.1+  0.0     230920 858  0.2-  0.0
230919 G96  0.3-  0.0     230920 033  0.0   0.2+    230920 858  0.3+  0.3+
230919 G96  0.2-  0.0     230920 H21  0.3-  0.4-    230921 033  0.4-  0.0
230919 G96  0.1+  0.0     230920 H21  0.1-  0.0     230921 033  0.1+  0.3-
230919 I52  0.3-  0.1-    230920 I52  0.1+  0.2+    230921 033  0.3+  0.2-
230919 I52  0.4+  0.1+    230920 I52  0.0   0.1-
230920 033  0.3-  0.0     230920 I52  0.1+  0.1+

Ephemeris:
2023 SE3                 a,e,i = 1.73, 0.38, 5                   q = 1.0717
Date    TT    R. A. (2000) Decl.     Delta      r    Elong.  Phase     V
2023 08 22    21 32 42.1 +09 40 01   0.1012  1.1055   157.1    20.9    21.9
...
2023 09 06    23 12 58.0 +08 37 31   0.07277 1.0784   164.1    14.8    21.0
...
2023 09 14    00 27 28.8 +05 33 22   0.06939 1.0724   162.0    16.9    20.9
...
2023 09 20    01 20 07.6 +02 36 59   0.07313 1.0719   156.4    22.0    21.2
2023 09 21    01 28 00.5 +02 08 09   0.07422 1.0722   155.5    22.9    21.3
2023 09 22    01 35 34.9 +01 39 57   0.07543 1.0726   154.6    23.7    21.3
...
2023 09 28    02 14 14.9 -00 50 04   0.08490 1.0768   150.3    27.5    21.7
...
2023 10 06    02 48 56.8 -03 11 12   0.1019  1.0877   148.0    29.2    22.2
...
2023 10 21    03 18 04.6 -05 01 37   0.1432  1.1233   151.2    25.3    22.9

M. P. C. Staff               (C) Copyright 2023 MPC           M.P.E.C. 2023-S130





More information about the Iaude mailing list